This is the latest recevied weather packets stored in our database for station/object KY4OP-13. If no packets are shown the sender has not sent any weather packets the latest 1 day(s).
| Time | Temp. | Humidity | Pressure | Rain* | Wind** | Luminosity | Snow |
|---|---|---|---|---|---|---|---|
| 1778006211 | 27.78° C | 33% | 1013 hPa | 0 mm | 3.13 m/s, 226° | - | - |
| 1778005908 | 27.78° C | 32% | 1012.9 hPa | 0 mm | 4.02 m/s, 234° | - | - |
| 1778005604 | 27.78° C | 37% | 1013 hPa | 0 mm | 0.89 m/s, 131° | - | - |
| 1778005302 | 27.78° C | 37% | 1013 hPa | 0 mm | 0.45 m/s, 260° | - | - |
| 1778004998 | 27.78° C | 35% | 1013.5 hPa | 0 mm | 3.58 m/s, 222° | - | - |
| 1778004696 | 27.78° C | 37% | 1013.4 hPa | 0 mm | 4.02 m/s, 236° | - | - |
| 1778004391 | 27.22° C | 34% | 1013.5 hPa | 0 mm | 1.79 m/s, 229° | - | - |
| 1778004089 | 27.22° C | 37% | 1013.6 hPa | 0 mm | 4.47 m/s, 161° | - | - |
| 1778003785 | 27.78° C | 41% | 1013.4 hPa | 0 mm | 0.89 m/s, 225° | - | - |
| 1778003481 | 27.78° C | 40% | 1013.6 hPa | 0 mm | 2.24 m/s, 184° | - | - |
| 1778003178 | 27.22° C | 40% | 1013.5 hPa | 0 mm | 2.68 m/s, 217° | - | - |
| 1778002874 | 27.22° C | 39% | 1013.7 hPa | 0 mm | 4.47 m/s, 211° | - | - |
| 1778002571 | 26.67° C | 41% | 1013.5 hPa | 0 mm | 1.79 m/s, 212° | - | - |
| 1778002268 | 27.22° C | 40% | 1013.5 hPa | 0 mm | 1.34 m/s, 188° | - | - |
| 1778001966 | 27.78° C | 42% | 1013.5 hPa | 0 mm | 1.79 m/s, 109° | - | - |
| 1778001662 | 26.67° C | 42% | 1013.8 hPa | 0 mm | 1.79 m/s, 206° | - | - |
| 1778001356 | 26.67° C | 45% | 1013.8 hPa | 0 mm | 1.79 m/s, 250° | - | - |
| 1778001054 | 27.22° C | 42% | 1013.9 hPa | 0 mm | 1.79 m/s, 252° | - | - |
| 1778000751 | 26.67° C | 40% | 1013.9 hPa | 0 mm | 2.68 m/s, 220° | - | - |
| 1778000447 | 26.67° C | 43% | 1013.8 hPa | 0 mm | 0.89 m/s, 227° | - | - |
| 1778000142 | 26.67° C | 43% | 1014 hPa | 0 mm | 1.79 m/s, 228° | - | - |
| 1777999838 | 26.11° C | 45% | 1013.8 hPa | 0 mm | 1.34 m/s, 126° | - | - |
| 1777999534 | 27.22° C | 41% | 1014.1 hPa | 0 mm | 1.34 m/s, 251° | - | - |
| 1777999232 | 27.22° C | 41% | 1014 hPa | 0 mm | 2.68 m/s, 233° | - | - |
| 1777998931 | 26.67° C | 44% | 1014.1 hPa | 0 mm | 1.79 m/s, 213° | - | - |
* Rain latest hour (hover to see other rain measurements)
** Current wind speed in m/s (hover to see current wind gust speed)